Date,TemperatureHighF,TemperatureAvgF,TemperatureLowF,DewpointHighF,DewpointAvgF,DewpointLowF,HumidityHigh,HumidityAvg,HumidityLow,PressureMaxIn,PressureMinIn,WindSpeedMaxMPH,WindSpeedAvgMPH,GustSpeedMaxMPH,PrecipitationSumIn
2013-2-1,7.5,1.5,-5.7,5.9,-1.6,-7.0,95,87,72,30.29,30.07,7,2,16,0.00
2013-2-2,12.8,9.4,6.7,8.7,6.4,4.1,98,88,75,30.08,29.97,8,2,14,0.00
2013-2-3,21.7,15.6,9.6,15.5,11.1,7.6,93,83,64,30.01,29.89,10,2,17,0.00
2013-2-4,18.3,15.3,11.6,16.2,11.7,8.5,94,86,70,29.96,29.89,8,1,14,0.00
2013-2-5,30.5,21.5,10.0,23.6,16.7,6.2,92,82,73,30.08,29.74,8,2,16,0.00
2013-2-6,34.3,23.2,7.8,29.0,17.8,7.0,98,81,59,30.18,30.02,7,1,14,0.00
2013-2-7,35.9,31.6,22.4,33.4,29.5,21.3,98,92,83,30.07,29.90,9,2,17,0.29
2013-2-8,25.4,21.2,13.3,21.0,17.5,12.2,96,86,72,30.35,30.07,10,3,20,0.00
2013-2-9,29.9,23.9,11.9,24.8,20.9,10.7,99,89,77,30.36,30.03,9,2,17,0.00
2013-2-10,42.2,34.1,21.1,41.0,32.2,19.5,97,93,81,30.03,29.37,11,3,25,1.02
2013-2-11,37.3,30.4,24.8,32.3,23.8,18.5,86,76,67,29.99,29.37,17,7,32,0.27
2013-2-12,32.0,25.7,21.7,22.2,18.8,15.7,86,75,63,30.07,29.84,8,2,19,0.00
2013-2-13,38.7,31.4,20.3,29.5,24.6,18.8,94,77,58,29.84,29.64,7,1,13,0.00
2013-2-14,36.7,34.1,28.1,33.0,25.9,19.8,88,72,56,29.99,29.54,12,3,22,0.03
2013-2-15,27.8,20.8,12.7,20.9,9.9,5.4,82,63,43,30.19,29.99,9,3,17,0.00
2013-2-16,18.6,12.7,7.2,8.5,4.9,2.1,89,71,52,30.18,30.11,8,2,17,0.00
2013-2-17,27.6,17.5,3.8,19.1,9.2,1.8,94,71,49,30.16,29.87,8,2,17,0.00
2013-2-18,46.7,34.3,22.3,37.8,27.0,18.1,93,75,61,29.86,29.46,11,3,22,0.14
2013-2-19,22.0,13.5,8.5,18.3,8.3,1.4,94,79,69,30.18,29.56,11,5,25,0.00
2013-2-20,24.7,15.0,5.5,12.4,7.1,1.0,83,71,55,30.35,30.17,8,2,14,0.00
2013-2-21,26.3,19.6,11.7,23.6,15.7,8.2,95,85,73,30.40,29.99,6,1,22,0.00
2013-2-22,32.4,28.1,24.4,24.9,23.7,21.9,95,84,73,29.99,29.76,4,1,14,0.00
2013-2-23,32.5,26.7,23.2,22.3,19.4,17.3,85,74,60,29.92,29.82,9,4,17,0.00
2013-2-24,39.7,28.1,17.7,22.9,19.3,15.7,93,71,49,30.11,29.92,5,1,13,0.00
2013-2-25,42.2,30.7,19.5,26.6,22.5,17.2,91,73,54,30.14,30.00,6,0,15,0.00
2013-2-26,34.6,31.2,28.4,28.5,25.5,23.1,97,80,68,30.00,29.64,15,3,31,0.00
2013-2-27,32.9,30.7,28.2,30.4,28.4,26.0,97,91,84,29.78,29.62,12,4,21,0.01
2013-2-28,34.9,31.3,24.7,29.3,24.9,18.7,90,77,65,30.12,29.78,9,4,22,0.00